Location: Heathrow
(51.4667°N, 0.4500°W)
Time: 11:06:41
(UTC+00:00)

Daily predictions for brighter satellites

Satellite Brightness Start Highest point End
(mag) Time Altitude Azimuth Time Altitude Azimuth Time Altitude Azimuth
Cosmos 1536 Rocket 4.3 19:36:38 10° N 19:40:44 36° ENE 19:44:50 10° SE
SJ 16-02 3.3 19:38:07 10° NW 19:41:53 29° WSW 19:45:38 10° SSW
DELTA 2 DEB (DPAF) 4.1 19:41:25 10° NNE 19:45:38 58° ESE 19:49:47 10° S
Resurs 01 Rocket 1.6 19:41:57 10° SSE 19:46:22 81° ENE 19:50:50 10° NNW
CENTAUR R/B 4.0 19:40:44 10° NW 19:47:44 40° NNE 19:55:54 10° E
NOSS 3-1 (A) 3.4 19:46:52 10° SSW 19:51:33 43° ESE 19:57:08 10° NE
Cosmos 1300 Rocket 4.0 19:49:16 10° SSW 19:53:38 70° WNW 19:58:04 10° N
ERS-1 Rocket 4.1 19:51:37 10° ESE 19:55:49 28° ENE 20:00:02 10° N
Cosmos 1934 Rocket 4.2 19:53:36 10° N 19:59:37 52° ENE 20:05:41 10° SSE
USA 229 DEB 4.5 19:56:05 10° SSE 20:00:50 24° ESE 20:05:56 10° ENE
USA 229 4.5 19:56:13 10° SSE 20:00:57 24° ESE 20:06:01 10° ENE
Cosmos 2151 Rocket 3.9 19:59:02 10° SSE 20:03:13 44° E 20:07:26 10° NNE
USA 234 3.8 19:59:09 10° SE 20:05:33 54° SW 20:11:57 10° WNW
USA 281 3.3 20:00:01 10° SSE 20:06:36 87° ENE 20:13:13 10° NNW
ATLAS CENTAUR R/B 2.9 20:03:38 10° NNW 20:06:39 23° NNE 20:09:45 10° E
Cosmos 2227 Rocket 3.2 20:02:29 10° NNW 20:07:42 35° NE 20:12:21 12° ESE
NOSS 3-1 (C) 3.3 20:06:45 10° SW 20:11:50 81° NW 20:18:05 10° NE
Iridium 2 3.6 20:09:23 10° N 20:12:12 39° E 20:14:16 16° SE
SL-4 R/B 1.6 20:11:32 10° W 20:15:13 87° S 20:17:57 15° E
Cosmos 371 Rocket 3.3 20:11:34 10° NNW 20:16:24 85° WSW 20:21:07 10° SSE
Landsat 4 4.2 20:17:01 17° SE 20:19:23 39° ENE 20:22:42 10° N
Cosmos 304 Rocket 3.7 20:15:26 10° NNW 20:20:14 86° ENE 20:24:31 13° SSE
MetOp-B 4.2 20:15:38 11° SSE 20:20:45 64° ENE 20:26:05 10° N
Cosmos 1777 Rocket 4.0 20:15:31 10° NNW 20:20:50 89° ENE 20:25:46 12° SSE
Cosmos 1697 Rocket 4.1 20:18:57 15° SE 20:21:03 18° E 20:24:44 10° ENE
CSL-04 Rocket 4.4 20:16:18 10° S 20:21:41 54° W 20:27:03 10° NNW
COSMOS 2455 3.1 20:17:13 10° NW 20:23:15 63° NE 20:27:59 17° SE
Okean 2 Rocket 3.1 20:20:46 10° S 20:25:13 68° E 20:29:43 10° NNE
ATLAS 3B R/B 2.8 20:18:10 10° SW 20:25:18 78° SE 20:32:58 10° NE
NOSS 8 (E) 4.4 20:26:54 10° NW 20:29:54 65° NE 20:31:59 22° ESE
SPOT 5 3.1 20:26:04 12° SSE 20:30:56 73° ENE 20:36:09 10° N
IRS-1A Rocket 4.4 20:28:48 13° SSE 20:34:03 72° ENE 20:39:54 10° NNW
Cosmos 405 Rocket 3.9 20:33:26 21° ESE 20:34:11 22° E 20:37:06 10° NE
CZ-4C R/B 3.1 20:29:30 10° NW 20:36:12 65° NE 20:42:37 18° ESE
Cosmos 2297 Rocket 2.2 20:30:41 10° NNW 20:36:23 81° ENE 20:40:35 19° SE
BlueWalker 3 2.3 20:34:13 10° SW 20:37:47 39° SSE 20:40:37 15° E
Spot 2 Rocket 3.9 20:36:25 20° SE 20:39:42 47° ENE 20:44:33 10° N
Cosmos 1354 Rocket 4.3 20:36:06 10° NNW 20:41:24 69° WSW 20:45:56 14° S
Terra 2.1 20:40:08 21° SE 20:43:06 52° ENE 20:47:42 10° N
Cosmos 1656 3.7 20:38:20 10° S 20:43:45 56° ESE 20:49:08 10° NE
Cosmos 1455 Rocket 3.8 20:46:45 25° SE 20:48:24 33° E 20:52:19 10° NNE
Okean 1 Rocket 3.0 20:44:08 10° S 20:48:33 73° E 20:53:03 10° NNE
ATLAS 5 CENTAUR R/B 2.4 20:45:24 10° WSW 20:48:42 43° NW 20:52:31 10° NE
Cosmos 332 Rocket 3.8 20:44:03 10° NNW 20:48:56 77° ENE 20:51:54 24° SSE
Sich 1 Rocket 3.8 20:44:31 10° SSW 20:48:56 73° WNW 20:53:25 10° N
Iridium 4 Rocket 3.7 20:44:06 10° S 20:49:39 77° E 20:55:31 10° N
USA 245 3.8 20:46:54 20° SSE 20:50:28 71° ENE 20:54:41 10° N
Cosmos 2219 3.9 20:45:51 10° NNW 20:51:12 41° NE 20:54:33 21° ESE
Okean-O 3.6 20:49:00 10° S 20:53:13 45° W 20:57:28 10° NNW
CZ-4C R/B 3.5 20:51:55 10° N 20:55:18 58° WNW 20:58:37 10° SSW
Cosmos 1437 Rocket 2.9 20:55:03 10° N 20:58:55 55° ENE 21:00:22 34° SE
Genesis I 4.4 20:55:40 10° WNW 20:58:55 31° WSW 21:00:43 20° S
Ariane Rocket 3.0 20:56:31 25° SSE 20:59:29 68° ENE 21:04:31 10° N
Cosmos 1763 Rocket 3.8 20:57:45 20° SSE 21:00:52 44° ESE 21:05:45 10° NE
Cosmos 2263 Rocket 3.2 20:57:49 10° NNW 21:03:00 36° NE 21:06:06 21° E
Cosmos 44 3.5 21:00:09 10° SSW 21:05:25 56° SE 21:10:38 10° NE
Okean O Rocket 4.1 21:05:11 10° SW 21:08:17 19° W 21:11:25 10° NW
Cosmos 990 Rocket 3.9 21:03:58 10° NNW 21:09:11 90° SW 21:11:52 29° SSE
USA 267 3.6 21:04:13 10° ENE 21:10:44 67° NNW 21:17:13 10° W
ARGOS Delta rocket 4.3 21:08:36 29° SE 21:11:20 61° ENE 21:16:44 10° N
NOSS 3-2 (A) 4.4 21:07:20 10° NW 21:14:07 54° NE 21:19:58 19° ESE
Cosmos 1605 Rocket 4.1 21:08:05 10° NNW 21:14:30 80° W 21:19:09 19° S
Aureole 1 Rocket 2.0 21:12:41 10° NNW 21:15:40 72° ENE 21:15:56 66° ESE
Cosmos 540 Rocket 3.7 21:18:45 33° SSE 21:20:35 47° ESE 21:25:29 10° NE
Cosmos 1153 Rocket 4.5 21:16:14 10° N 21:22:35 76° E 21:25:55 30° SSE
Resurs 01 Rocket 4.3 21:21:05 10° WSW 21:23:25 14° W 21:25:45 10° NW
Cosmos 2058 2.9 21:21:38 10° N 21:25:38 62° ENE 21:26:27 49° SE
MOS 1 Rocket 3.1 21:25:21 43° SE 21:26:36 67° ENE 21:31:00 10° N
Cosmos 1626 Rocket 4.0 21:23:59 10° N 21:28:14 44° ENE 21:29:06 39° ESE
Cosmos 372 Rocket 4.2 21:25:05 10° NNW 21:30:17 60° ENE 21:32:09 38° ESE
Cosmos 468 Rocket 4.0 21:31:31 36° SSE 21:33:24 56° ESE 21:38:31 10° NNE
Cosmos 546 4.4 21:30:24 10° W 21:34:08 68° SSW 21:34:20 66° SSE
ERS-1 Rocket 3.6 21:31:22 23° SSW 21:34:20 52° W 21:39:15 10° NNW
Cosmos 1802 Rocket 4.4 21:30:36 10° N 21:36:39 48° ENE 21:38:59 34° ESE
SPOT 3 Rocket 3.7 21:35:46 30° S 21:38:17 68° WSW 21:43:29 10° NNW
CENTAUR R/B 3.3 21:31:35 10° NW 21:39:36 79° NE 21:44:47 29° SE
NOSS 3-1 (A) 4.2 21:37:09 10° WSW 21:42:17 50° NNW 21:48:35 10° NE
Landsat 5 3.3 21:38:20 10° NNE 21:42:35 70° ESE 21:43:13 58° SSE
Cosmos 1869 4.3 21:43:56 31° ENE 21:43:56 31° ENE 21:46:43 10° NNE
Cosmos 841 Rocket 4.1 21:43:35 35° E 21:43:35 35° E 21:48:06 10° NE
Cosmos 2016 Rocket 4.5 21:38:04 10° N 21:43:56 45° ENE 21:45:55 34° ESE
ATLAS CENTAUR R/B 1.0 21:41:02 10° NW 21:44:47 74° SW 21:45:04 69° S
Cosmos 1844 Rocket 4.5 21:42:43 10° NNW 21:47:09 23° NE 21:50:31 14° E
Intercosmos 25 3.3 21:42:51 10° N 21:47:49 71° ENE 21:48:13 65° ESE
Cosmos 1544 Rocket 3.7 21:49:27 52° E 21:49:31 52° E 21:53:44 10° NNE
USA 229 DEB 3.5 21:44:38 10° SW 21:50:52 88° NW 21:57:50 10° NE
USA 229 3.5 21:44:43 10° SW 21:50:58 88° NW 21:57:56 10° NE
Cosmos 2100 Rocket 4.0 21:45:22 10° N 21:51:47 80° ENE 21:54:16 40° SSE
Cosmos 2227 Rocket 2.6 21:46:28 10° NW 21:52:01 55° WSW 21:54:10 35° S
Cosmos 1727 Rocket 3.9 21:49:08 30° S 21:52:25 84° E 21:58:42 10° N
SL-4 R/B 3.0 21:50:32 10° W 21:52:47 28° WSW 21:52:47 28° WSW
H-2A R/B 3.5 21:54:16 28° ENE 21:54:16 28° ENE 21:57:27 10° N
Cosmos 1980 Rocket 2.5 21:55:14 42° ESE 21:55:32 43° ESE 22:00:51 10° NE
Cosmos 292 Rocket 3.7 21:51:08 10° NNW 21:55:54 82° WSW 21:56:52 57° S
Cosmos 1937 Rocket 3.4 21:57:09 10° NNW 22:02:31 89° WSW 22:03:46 54° SSE
Cosmos 1000 Rocket 4.4 22:01:36 42° S 22:03:45 74° E 22:09:53 10° NNE
Okean 1-7 Rocket 3.6 21:59:14 10° N 22:03:46 64° ENE 22:04:09 61° ESE
Cosmos 1697 Rocket 2.6 22:00:32 23° SSW 22:04:14 89° WNW 22:09:57 10° NNE
Cosmos 2360 4.4 22:00:06 10° SW 22:05:47 70° WNW 22:11:30 10° NNE
Cosmos 2123 Rocket 4.2 22:05:45 44° SE 22:07:20 55° E 22:13:31 10° NNE
COSMOS 2455 4.0 22:03:35 10° NW 22:08:52 32° WSW 22:11:08 25° SSW
MetOp-A 3.8 22:08:40 47° WSW 22:08:54 48° W 22:12:37 10° NNW
Cosmos 405 Rocket 4.1 22:07:46 25° WSW 22:09:14 35° WNW 22:12:40 10° N
CZ-2C R/B 4.3 22:06:31 10° NNE 22:10:47 43° E 22:10:47 43° E
Cosmos 1602 Rocket 3.5 22:06:49 10° N 22:11:11 70° ENE 22:11:18 69° E
Cosmos 1758 Rocket 3.4 22:07:22 10° N 22:11:51 79° E 22:12:06 75° ESE
Cosmos 2228 3.1 22:14:51 59° ENE 22:14:51 59° ENE 22:18:36 10° NNE
Cosmos 1898 Rocket 3.9 22:10:01 10° NNW 22:15:08 55° WSW 22:16:18 45° SSW
BlueWalker 3 2.4 22:12:04 10° W 22:15:06 53° W 22:15:06 53° W
ATLAS 3B R/B 4.0 22:09:43 10° W 22:16:43 45° NNW 22:24:07 10° NE
ARIANE 5 R/B 2.6 22:17:17 65° E 22:17:31 66° ENE 22:21:59 10° N
Cosmos 2297 Rocket 4.1 22:15:45 10° NW 22:19:46 20° W 22:22:24 15° SW
Terra 3.6 22:18:51 18° SW 22:20:59 24° W 22:24:49 10° NW
CZ-4C R/B 3.5 22:17:58 10° NW 22:24:48 47° WSW 22:27:43 35° SSW
Cosmos 2369 3.7 22:27:49 58° SE 22:28:05 59° ESE 22:33:38 10° NE
Meteor 2-1 Rocket 4.3 22:28:09 42° SSW 22:30:00 71° WNW 22:35:31 10° N
Cosmos 1825 Rocket 3.9 22:25:58 10° N 22:30:02 52° ENE 22:30:02 52° ENE
NOSS 3-2 (C) 4.2 22:23:21 10° NW 22:30:25 68° NE 22:34:32 32° ESE
Cosmos 1666 4.2 22:27:12 10° N 22:29:23 27° NE 22:29:23 27° NE
Lacrosse 4 Rocket 3.7 22:33:41 13° ENE 22:33:41 13° ENE 22:34:17 10° NE
SL-08 R/B 4.4 22:24:40 10° N 22:31:04 80° E 22:32:34 55° SSE
Meteor 2-8 Rocket 4.4 22:26:03 10° N 22:32:15 87° E 22:33:42 56° SSE
Cosmos 1725 Rocket 3.9 22:27:25 10° N 22:33:39 87° W 22:35:10 55° S
ATLAS 5 CENTAUR R/B 4.2 22:30:59 10° NW 22:33:40 18° N 22:36:40 10° NE
Cosmos 2233 Rocket 4.0 22:27:51 10° N 22:34:02 68° ENE 22:35:19 54° SE
Cosmos 1459 Rocket 4.2 22:28:43 10° NNW 22:34:40 59° W 22:36:35 41° SSW
Cosmos 2219 3.8 22:30:05 10° NW 22:35:26 45° WSW 22:36:27 40° SW
ALOS 2 3.6 22:35:59 36° ENE 22:35:59 36° ENE 22:39:59 10° N
Cosmos 2061 Rocket 4.0 22:34:03 10° N 22:40:32 82° E 22:42:00 56° SSE
Cosmos 1862 3.8 22:37:25 10° N 22:40:37 57° N 22:40:37 57° N
Cosmos 2263 Rocket 2.4 22:41:43 10° NW 22:47:10 53° WSW 22:47:47 50° SW
Cosmos 2360 Rocket 4.2 22:51:06 15° E 22:51:06 15° E 22:53:05 10° ENE
Cosmos 1271 Rocket 3.8 22:46:25 10° N 22:49:07 39° NNE 22:49:07 39° NNE
Cosmos 1500 4.4 22:47:53 10° N 22:50:09 37° N 22:50:09 37° N
USA 267 3.9 22:47:00 10° ENE 22:53:22 56° N 22:59:45 10° WNW
Cosmos 2082 4.1 22:48:22 10° NW 22:53:47 48° WSW 22:54:20 46° SW
Cosmos 1606 3.9 22:57:44 36° NW 22:57:44 36° NW 23:00:35 10° N
Meteor 2-3 Rocket 4.4 22:55:28 10° NNW 23:00:49 44° W 23:01:58 39° WSW
Lacrosse 5 4.3 23:05:57 11° ENE 23:05:57 11° ENE 23:06:12 10° ENE
Cosmos 2333 Rocket 4.1 23:03:47 16° E 23:03:47 16° E 23:06:07 10° ENE
Cosmos 2322 Rocket 3.7 23:03:59 23° E 23:03:59 23° E 23:07:20 10° NE
PSLV R/B 4.4 23:00:29 10° N 23:03:54 57° NNW 23:03:54 57° NNW
NOSS 3-2 (A) 4.2 22:58:06 10° NW 23:05:19 61° SW 23:07:20 49° S
Spot 4 3.8 23:09:20 82° NW 23:09:20 82° NW 23:13:59 10° NNW
Cosmos 1726 Rocket 4.1 23:10:52 52° NE 23:10:52 52° NE 23:14:15 10° NNE
Meteor 2-19 Rocket 4.3 23:16:07 68° SSW 23:16:59 88° W 23:23:08 10° N
Cosmos 1953 Rocket 4.0 23:15:32 10° NNW 23:19:07 59° NNW 23:19:07 59° NNW
SL-16 R/B 2.6 23:22:57 48° E 23:22:57 48° E 23:27:51 10° NE
Cosmos 1844 3.8 23:16:55 10° NNW 23:22:41 68° NE 23:23:28 61° E
Cosmos 841 Rocket 4.5 23:23:34 32° W 23:25:14 42° NW 23:30:07 10° NNE
H-2A R/B 4.1 23:30:18 24° WNW 23:30:18 24° WNW 23:32:31 10° NW
CENTAUR R/B 3.9 23:22:33 10° NW 23:30:08 39° WSW 23:31:55 36° SW
USA 238 DEB 3.9 23:23:00 10° NW 23:30:16 82° NE 23:32:58 45° SE
USA 238 3.9 23:23:06 10° NW 23:30:22 81° NE 23:33:05 45° SE
Cosmos 1125 Rocket 3.4 23:26:34 10° NNW 23:31:48 81° NE 23:31:48 81° NE
Cosmos 1844 Rocket 2.5 23:26:14 10° NNW 23:31:53 85° ENE 23:32:08 81° ESE
Cosmos 1812 4.5 23:37:39 26° NNE 23:37:39 26° NNE 23:39:28 10° NNE
Cosmos 1980 Rocket 3.2 23:36:55 26° WSW 23:39:34 42° NW 23:44:57 10° NNE
PSLV R/B 4.4 23:35:20 10° NNE 23:39:04 46° ENE 23:39:04 46° ENE
Meteor 2-14 Rocket 4.5 23:41:04 62° ESE 23:41:32 64° E 23:47:38 10° NNE
Cosmos 1072 Rocket 4.4 23:35:13 10° N 23:41:39 77° ENE 23:42:32 66° SE
Cosmos 2346 Rocket 4.3 23:42:06 72° S 23:42:46 85° E 23:49:04 10° N
Cosmos 2151 4.0 23:39:50 10° NNW 23:42:57 41° NW 23:42:57 41° NW
Cosmos 2278 3.5 23:44:40 84° SW 23:44:53 89° WNW 23:50:37 10° NNE
Timation 2 Rocket 4.0 23:40:27 10° NNW 23:47:09 80° ENE 23:48:20 61° SE
